| time (UTC) | temp F | wind direction | speed MPH | gust MPH | rain 1hr in | rain 24hr in | rain mn in | humidity % | barometer mb |
| 20260905082244 | 54 | 75 | 7.0 | 8.0 | 0.00 | 0.00 | 0.00 | 49 | 1017.5 |
| 20260905081744 | 53 | 40 | 5.0 | 8.0 | 0.00 | 0.00 | 0.00 | 50 | 1017.4 |
| 20260905081244 | 53 | 49 | 4.0 | 8.0 | 0.00 | 0.00 | 0.00 | 51 | 1017.4 |
| 20260905080744 | 53 | 73 | 4.0 | 8.0 | 0.00 | 0.00 | 0.00 | 52 | 1017.4 |
| 20260905080244 | 53 | 50 | 5.0 | 8.0 | 0.00 | 0.00 | 0.00 | 53 | 1017.5 |
| 20260905075244 | 53 | 61 | 5.0 | 8.0 | 0.00 | 0.00 | 0.00 | 53 | 1017.4 |
| 20260905074744 | 53 | 77 | 7.0 | 8.0 | 0.00 | 0.00 | 0.00 | 53 | 1017.4 |
| 20260905074244 | 53 | 66 | 4.0 | 8.0 | 0.00 | 0.00 | 0.00 | 53 | 1017.4 |
| 20260905073744 | 53 | 69 | 3.0 | 8.0 | 0.00 | 0.00 | 0.00 | 53 | 1017.5 |
| 20260905073244 | 54 | 68 | 4.0 | 8.0 | 0.00 | 0.00 | 0.00 | 53 | 1017.7 |
| 20260905071744 | 53 | 76 | 7.0 | 8.0 | 0.00 | 0.00 | 0.00 | 54 | 1017.5 |
| 20260905070743 | 54 | 44 | 4.0 | 8.0 | 0.00 | 0.00 | 0.00 | 55 | 1017.6 |
| 20260905070244 | 54 | 80 | 3.0 | 8.0 | 0.00 | 0.00 | 0.00 | 54 | 1017.6 |
| 20260905065244 | 54 | 66 | 5.0 | 8.0 | 0.00 | 0.00 | 0.00 | 54 | 1017.4 |
| 20260905064744 | 54 | 80 | 4.0 | 8.0 | 0.00 | 0.00 | 0.00 | 54 | 1017.3 |
| 20260905064243 | 54 | 59 | 7.0 | 8.0 | 0.00 | 0.00 | 0.00 | 54 | 1017.3 |
| 20260905063743 | 54 | 43 | 5.0 | 7.0 | 0.00 | 0.00 | 0.00 | 54 | 1017.3 |
| 20260905063243 | 54 | 60 | 5.0 | 7.0 | 0.00 | 0.00 | 0.00 | 54 | 1017.4 |
| 20260905062743 | 54 | 43 | 6.0 | 7.0 | 0.00 | 0.00 | 0.00 | 54 | 1017.4 |
| 20260905062243 | 54 | 76 | 3.0 | 7.0 | 0.00 | 0.00 | 0.00 | 53 | 1017.4 |
| 20260905061743 | 55 | 71 | 5.0 | 8.0 | 0.00 | 0.00 | 0.00 | 53 | 1017.5 |
| 20260905060742 | 54 | 68 | 4.0 | 8.0 | 0.00 | 0.00 | 0.00 | 54 | 1017.3 |
| 20260905060242 | 55 | 42 | 5.0 | 8.0 | 0.00 | 0.00 | 0.00 | 54 | 1017.6 |
| 20260905055742 | 55 | 51 | 3.0 | 8.0 | 0.00 | 0.00 | 0.00 | 54 | 1017.3 |
| 20260905054742 | 55 | 70 | 5.0 | 7.0 | 0.00 | 0.00 | 0.00 | 54 | 1017.2 |
| 20260905053743 | 55 | 67 | 4.0 | 9.0 | 0.00 | 0.00 | 0.00 | 54 | 1017.3 |
| 20260905053242 | 55 | 68 | 8.0 | 9.0 | 0.00 | 0.00 | 0.00 | 54 | 1017.2 |
| 20260905052742 | 55 | 72 | 4.0 | 7.0 | 0.00 | 0.00 | 0.00 | 54 | 1017.2 |
| 20260905051743 | 55 | 61 | 3.0 | 8.0 | 0.00 | 0.00 | 0.00 | 55 | 1017.2 |
| 20260905050742 | 56 | 60 | 3.0 | 8.0 | 0.00 | 0.00 | 0.00 | 55 | 1017.2 |
| 20260905050242 | 56 | 63 | 4.0 | 8.0 | 0.00 | 0.00 | 0.00 | 56 | 1017.2 |
| 20260905045742 | 56 | 77 | 3.0 | 7.0 | 0.00 | 0.00 | 0.00 | 56 | 1016.9 |
| 20260905044742 | 56 | 51 | 3.0 | 7.0 | 0.00 | 0.00 | 0.00 | 57 | 1016.7 |
| 20260905044242 | 56 | 42 | 3.0 | 7.0 | 0.00 | 0.00 | 0.00 | 57 | 1016.7 |
| 20260905043742 | 56 | 35 | 4.0 | 7.0 | 0.00 | 0.00 | 0.00 | 57 | 1016.7 |
| 20260905043241 | 56 | 34 | 4.0 | 7.0 | 0.00 | 0.00 | 0.00 | 56 | 1016.6 |
| 20260905042741 | 56 | 61 | 4.0 | 8.0 | 0.00 | 0.00 | 0.00 | 56 | 1016.6 |
| 20260905042242 | 56 | 51 | 3.0 | 8.0 | 0.00 | 0.00 | 0.00 | 56 | 1016.5 |
| 20260905041741 | 56 | 75 | 2.0 | 8.0 | 0.00 | 0.00 | 0.00 | 57 | 1016.5 |
| 20260905040741 | 57 | 45 | 5.0 | 8.0 | 0.00 | 0.00 | 0.00 | 57 | 1016.5 |
| 20260905040241 | 57 | 92 | 3.0 | 8.0 | 0.00 | 0.00 | 0.00 | 57 | 1016.5 |
| 20260905035741 | 57 | 26 | 4.0 | 6.0 | 0.00 | 0.00 | 0.00 | 58 | 1016.3 |
| 20260905034741 | 57 | 46 | 2.0 | 6.0 | 0.00 | 0.00 | 0.00 | 57 | 1016.3 |
| 20260905034241 | 57 | 49 | 5.0 | 7.0 | 0.00 | 0.00 | 0.00 | 56 | 1016.3 |
| 20260905033741 | 58 | 38 | 4.0 | 7.0 | 0.00 | 0.00 | 0.00 | 56 | 1016.1 |
| 20260905033241 | 58 | 53 | 3.0 | 6.0 | 0.00 | 0.00 | 0.00 | 57 | 1016.2 |
| 20260905032241 | 59 | 36 | 4.0 | 5.0 | 0.00 | 0.00 | 0.00 | 55 | 1016.3 |
| 20260905031741 | 59 | 44 | 4.0 | 4.0 | 0.00 | 0.00 | 0.00 | 54 | 1016.1 |
| 20260905031241 | 60 | 64 | 3.0 | 4.0 | 0.00 | 0.00 | 0.00 | 54 | 1016.0 |
| 20260905030740 | 60 | 48 | 3.0 | 5.0 | 0.00 | 0.00 | 0.00 | 53 | 1016.0 |
| 20260905025740 | 61 | 65 | 3.0 | 5.0 | 0.00 | 0.00 | 0.00 | 51 | 1014.8 |
| 20260905025240 | 62 | 80 | 2.0 | 5.0 | 0.00 | 0.00 | 0.00 | 51 | 1014.9 |
| 20260905024741 | 63 | 65 | 3.0 | 5.0 | 0.00 | 0.00 | 0.00 | 51 | 1015.1 |
| 20260905024241 | 63 | 40 | 3.0 | 4.0 | 0.00 | 0.00 | 0.00 | 50 | 1015.0 |
| 20260905022240 | 67 | 227 | 0.0 | 1.0 | 0.00 | 0.00 | 0.00 | 46 | 1015.5 |
| 20260905021740 | 68 | 227 | 0.0 | 0.0 | 0.00 | 0.00 | 0.00 | 45 | 1015.5 |
| 20260905021240 | 68 | 227 | 0.0 | 1.0 | 0.00 | 0.00 | 0.00 | 45 | 1015.5 |
| 20260905020740 | 69 | 227 | 0.0 | 2.0 | 0.00 | 0.00 | 0.00 | 45 | 1015.8 |
| 20260905020240 | 70 | 227 | 0.0 | 2.0 | 0.00 | 0.00 | 0.00 | 44 | 1015.8 |
| 20260905015740 | 70 | 227 | 0.0 | 3.0 | 0.00 | 0.00 | 0.00 | 44 | 1014.1 |
| 20260905015239 | 71 | 227 | 0.0 | 4.0 | 0.00 | 0.00 | 0.00 | 43 | 1014.3 |
| 20260905014739 | 71 | 227 | 0.0 | 4.0 | 0.00 | 0.00 | 0.00 | 43 | 1014.3 |
| 20260905014239 | 72 | 224 | 0.0 | 4.0 | 0.00 | 0.00 | 0.00 | 42 | 1014.3 |
| 20260905013740 | 72 | 224 | 0.0 | 6.0 | 0.00 | 0.00 | 0.00 | 42 | 1014.4 |
| 20260905013239 | 73 | 224 | 4.0 | 6.0 | 0.00 | 0.00 | 0.00 | 42 | 1014.5 |
| 20260905012740 | 73 | 237 | 1.0 | 3.0 | 0.00 | 0.00 | 0.00 | 41 | 1014.4 |
| 20260905012240 | 73 | 238 | 0.0 | 3.0 | 0.00 | 0.00 | 0.00 | 41 | 1014.5 |
| 20260905011739 | 74 | 250 | 1.0 | 3.0 | 0.00 | 0.00 | 0.00 | 41 | 1014.4 |
| 20260905011239 | 74 | 231 | 0.0 | 8.0 | 0.00 | 0.00 | 0.00 | 40 | 1014.3 |
| 20260905010739 | 75 | 231 | 3.0 | 8.0 | 0.00 | 0.00 | 0.00 | 40 | 1014.7 |
| 20260905010239 | 75 | 238 | 0.0 | 4.0 | 0.00 | 0.00 | 0.00 | 39 | 1014.6 |
| 20260905005739 | 76 | 238 | 0.0 | 9.0 | 0.00 | 0.00 | 0.00 | 40 | 1014.6 |
| 20260905005239 | 76 | 252 | 1.0 | 9.0 | 0.00 | 0.00 | 0.00 | 39 | 1014.6 |
| 20260905004739 | 77 | 252 | 4.0 | 8.0 | 0.00 | 0.00 | 0.00 | 39 | 1014.7 |
| 20260905004238 | 77 | 184 | 2.0 | 7.0 | 0.00 | 0.00 | 0.00 | 38 | 1014.7 |
| 20260905003239 | 78 | 239 | 6.0 | 9.0 | 0.00 | 0.00 | 0.00 | 39 | 1014.9 |
| 20260905002739 | 78 | 226 | 3.0 | 12.0 | 0.00 | 0.00 | 0.00 | 38 | 1015.0 |
| 20260905002238 | 79 | 220 | 2.0 | 12.0 | 0.00 | 0.00 | 0.00 | 38 | 1015.0 |
| 20260905001739 | 79 | 236 | 4.0 | 9.0 | 0.00 | 0.00 | 0.00 | 38 | 1014.9 |
| 20260905001238 | 79 | 238 | 3.0 | 10.0 | 0.00 | 0.00 | 0.00 | 39 | 1014.9 |
| 20260905000739 | 79 | 234 | 3.0 | 11.0 | 0.00 | 0.00 | 0.00 | 39 | 1014.8 |
| 20260905000241 | 79 | 229 | 6.0 | 11.0 | 0.00 | 0.00 | 0.00 | 39 | 1015.0 |
| 20260904235738 | 80 | 242 | 5.0 | 11.0 | 0.00 | 0.00 | 0.00 | 39 | 1015.4 |
| 20260904235238 | 80 | 243 | 2.0 | 12.0 | 0.00 | 0.00 | 0.00 | 39 | 1015.4 |
| 20260904234738 | 80 | 234 | 10.0 | 12.0 | 0.00 | 0.00 | 0.00 | 38 | 1015.3 |
| 20260904233738 | 81 | 235 | 4.0 | 10.0 | 0.00 | 0.00 | 0.00 | 38 | 1015.2 |
| 20260904233237 | 81 | 254 | 7.0 | 10.0 | 0.00 | 0.00 | 0.00 | 38 | 1015.2 |
| 20260904232727 | 82 | 225 | 9.0 | 10.0 | 0.00 | 0.00 | 0.00 | 37 | 1015.4 |
| 20260904232238 | 82 | 247 | 2.0 | 10.0 | 0.00 | 0.00 | 0.00 | 37 | 1015.4 |
| 20260904231738 | 82 | 193 | 3.0 | 9.0 | 0.00 | 0.00 | 0.00 | 37 | 1015.4 |
| 20260904230738 | 82 | 245 | 8.0 | 12.0 | 0.00 | 0.00 | 0.00 | 37 | 1015.4 |
| 20260904230237 | 82 | 214 | 2.0 | 12.0 | 0.00 | 0.00 | 0.00 | 37 | 1015.6 |
| 20260904225738 | 81 | 234 | 4.0 | 12.0 | 0.00 | 0.00 | 0.00 | 37 | 1015.3 |
| 20260904225237 | 82 | 233 | 6.0 | 13.0 | 0.00 | 0.00 | 0.00 | 36 | 1015.5 |
| 20260904224738 | 83 | 234 | 12.0 | 14.0 | 0.00 | 0.00 | 0.00 | 36 | 1015.6 |
| 20260904224238 | 83 | 224 | 4.0 | 14.0 | 0.00 | 0.00 | 0.00 | 35 | 1015.6 |
| 20260904223737 | 83 | 220 | 0.0 | 13.0 | 0.00 | 0.00 | 0.00 | 36 | 1015.6 |
| 20260904223237 | 83 | 257 | 10.0 | 11.0 | 0.00 | 0.00 | 0.00 | 35 | 1015.7 |
| 20260904221726 | 82 | 245 | 10.0 | 14.0 | 0.00 | 0.00 | 0.00 | 35 | 1015.8 |
| 20260904221237 | 83 | 229 | 4.0 | 14.0 | 0.00 | 0.00 | 0.00 | 35 | 1015.7 |
| 20260904220237 | 83 | 227 | 12.0 | 14.0 | 0.00 | 0.00 | 0.00 | 34 | 1015.8 |
| 20260904215737 | 84 | 241 | 2.0 | 12.0 | 0.00 | 0.00 | 0.00 | 33 | 1016.1 |
| 20260904215237 | 83 | 238 | 11.0 | 12.0 | 0.00 | 0.00 | 0.00 | 33 | 1016.0 |
| 20260904214736 | 83 | 232 | 3.0 | 12.0 | 0.00 | 0.00 | 0.00 | 33 | 1016.0 |
| 20260904213737 | 84 | 221 | 3.0 | 14.0 | 0.00 | 0.00 | 0.00 | 32 | 1016.2 |
| 20260904212737 | 84 | 252 | 5.0 | 15.0 | 0.00 | 0.00 | 0.00 | 31 | 1016.4 |
| 20260904211736 | 85 | 217 | 6.0 | 14.0 | 0.00 | 0.00 | 0.00 | 29 | 1016.1 |
| 20260904211237 | 85 | 242 | 11.0 | 11.0 | 0.00 | 0.00 | 0.00 | 29 | 1016.2 |
| 20260904210736 | 86 | 241 | 3.0 | 11.0 | 0.00 | 0.00 | 0.00 | 29 | 1016.5 |
| 20260904210236 | 86 | 219 | 4.0 | 12.0 | 0.00 | 0.00 | 0.00 | 28 | 1016.6 |
| 20260904205736 | 86 | 184 | 4.0 | 12.0 | 0.00 | 0.00 | 0.00 | 27 | 1016.8 |
| 20260904204736 | 86 | 238 | 10.0 | 12.0 | 0.00 | 0.00 | 0.00 | 27 | 1016.8 |
| 20260904204236 | 85 | 229 | 4.0 | 10.0 | 0.00 | 0.00 | 0.00 | 27 | 1016.5 |
| 20260904203736 | 84 | 165 | 5.0 | 10.0 | 0.00 | 0.00 | 0.00 | 28 | 1016.5 |
| 20260904203236 | 84 | 243 | 4.0 | 11.0 | 0.00 | 0.00 | 0.00 | 28 | 1016.5 |
| 20260904202735 | 84 | 280 | 6.0 | 11.0 | 0.00 | 0.00 | 0.00 | 29 | 1016.5 |
| 20260904202235 | 84 | 191 | 5.0 | 12.0 | 0.00 | 0.00 | 0.00 | 29 | 1016.5 |
| 20260904201235 | 84 | 236 | 9.0 | 12.0 | 0.00 | 0.00 | 0.00 | 29 | 1016.5 |
| 20260904200235 | 84 | 245 | 7.0 | 10.0 | 0.00 | 0.00 | 0.00 | 26 | 1016.6 |
| 20260904195735 | 83 | 238 | 4.0 | 10.0 | 0.00 | 0.00 | 0.00 | 29 | 1016.4 |
| 20260904195235 | 83 | 255 | 4.0 | 13.0 | 0.00 | 0.00 | 0.00 | 28 | 1016.5 |
| 20260904194736 | 84 | 239 | 6.0 | 13.0 | 0.00 | 0.00 | 0.00 | 27 | 1016.7 |
| 20260904193735 | 84 | 217 | 9.0 | 12.0 | 0.00 | 0.00 | 0.00 | 26 | 1016.6 |
| 20260904193235 | 84 | 234 | 5.0 | 12.0 | 0.00 | 0.00 | 0.00 | 26 | 1016.6 |
| 20260904192235 | 84 | 232 | 6.0 | 16.0 | 0.00 | 0.00 | 0.00 | 23 | 1016.7 |
| 20260904191735 | 84 | 252 | 4.0 | 10.0 | 0.00 | 0.00 | 0.00 | 22 | 1016.7 |
| 20260904191235 | 84 | 227 | 2.0 | 9.0 | 0.00 | 0.00 | 0.00 | 21 | 1016.6 |
| 20260904190734 | 84 | 190 | 1.0 | 9.0 | 0.00 | 0.00 | 0.00 | 22 | 1016.8 |
| 20260904190235 | 83 | 244 | 4.0 | 9.0 | 0.00 | 0.00 | 0.00 | 21 | 1016.8 |
| 20260904185734 | 83 | 241 | 6.0 | 10.0 | 0.00 | 0.00 | 0.00 | 20 | 1016.8 |
| 20260904185234 | 84 | 290 | 3.0 | 11.0 | 0.00 | 0.00 | 0.00 | 19 | 1017.0 |
| 20260904184224 | 83 | 234 | 2.0 | 11.0 | 0.00 | 0.00 | 0.00 | 20 | 1016.8 |
| 20260904183734 | 83 | 238 | 6.0 | 10.0 | 0.00 | 0.00 | 0.00 | 21 | 1016.9 |
| 20260904183234 | 83 | 225 | 4.0 | 14.0 | 0.00 | 0.00 | 0.00 | 20 | 1016.9 |
| 20260904182734 | 82 | 232 | 5.0 | 14.0 | 0.00 | 0.00 | 0.00 | 21 | 1016.9 |
| 20260904182234 | 82 | 263 | 6.0 | 12.0 | 0.00 | 0.00 | 0.00 | 20 | 1017.0 |
| 20260904181734 | 82 | 234 | 3.0 | 12.0 | 0.00 | 0.00 | 0.00 | 20 | 1017.0 |
| 20260904181234 | 82 | 98 | 3.0 | 11.0 | 0.00 | 0.00 | 0.00 | 19 | 1017.0 |
| 20260904180734 | 81 | 193 | 0.0 | 11.0 | 0.00 | 0.00 | 0.00 | 18 | 1016.8 |
| 20260904180234 | 81 | 212 | 3.0 | 8.0 | 0.00 | 0.00 | 0.00 | 19 | 1016.7 |
| 20260904175734 | 81 | 9 | 0.0 | 10.0 | 0.00 | 0.00 | 0.00 | 18 | 1016.9 |
| 20260904175223 | 81 | 268 | 3.0 | 10.0 | 0.00 | 0.00 | 0.00 | 18 | 1017.0 |
| 20260904173733 | 79 | 235 | 1.0 | 11.0 | 0.00 | 0.00 | 0.00 | 18 | 1016.7 |
| 20260904173234 | 79 | 270 | 2.0 | 11.0 | 0.00 | 0.00 | 0.00 | 18 | 1016.7 |
| 20260904172734 | 79 | 241 | 10.0 | 11.0 | 0.00 | 0.00 | 0.00 | 17 | 1016.7 |
| 20260904172234 | 79 | 234 | 11.0 | 11.0 | 0.00 | 0.00 | 0.00 | 17 | 1016.7 |
| 20260904171734 | 79 | 229 | 6.0 | 11.0 | 0.00 | 0.00 | 0.00 | 16 | 1016.7 |
| 20260904171233 | 79 | 241 | 6.0 | 10.0 | 0.00 | 0.00 | 0.00 | 15 | 1016.6 |
| 20260904170733 | 79 | 257 | 5.0 | 10.0 | 0.00 | 0.00 | 0.00 | 15 | 1016.6 |
| 20260904170233 | 78 | 252 | 1.0 | 9.0 | 0.00 | 0.00 | 0.00 | 16 | 1016.7 |
| 20260904165733 | 78 | 240 | 8.0 | 9.0 | 0.00 | 0.00 | 0.00 | 16 | 1016.6 |
| 20260904164733 | 77 | 239 | 5.0 | 9.0 | 0.00 | 0.00 | 0.00 | 14 | 1016.3 |
| 20260904164233 | 77 | 255 | 3.0 | 9.0 | 0.00 | 0.00 | 0.00 | 12 | 1016.2 |
| 20260904163733 | 76 | 268 | 1.0 | 8.0 | 0.00 | 0.00 | 0.00 | 13 | 1016.1 |
| 20260904163233 | 76 | 232 | 5.0 | 8.0 | 0.00 | 0.00 | 0.00 | 12 | 1016.0 |
| 20260904162733 | 75 | 231 | 4.0 | 8.0 | 0.00 | 0.00 | 0.00 | 12 | 1015.7 |
| 20260904162233 | 75 | 268 | 1.0 | 8.0 | 0.00 | 0.00 | 0.00 | 10 | 1015.6 |
| 20260904161733 | 75 | 249 | 4.0 | 8.0 | 0.00 | 0.00 | 0.00 | 12 | 1015.5 |
| 20260904161233 | 74 | 246 | 2.0 | 7.0 | 0.00 | 0.00 | 0.00 | 10 | 1015.4 |
| 20260904160733 | 75 | 254 | 3.0 | 7.0 | 0.00 | 0.00 | 0.00 | 9 | 1015.3 |
| 20260904160232 | 75 | 227 | 4.0 | 7.0 | 0.00 | 0.00 | 0.00 | 10 | 1015.4 |
| 20260904155732 | 74 | 221 | 3.0 | 5.0 | 0.00 | 0.00 | 0.00 | 10 | 1015.2 |
| 20260904155233 | 74 | 221 | 1.0 | 5.0 | 0.00 | 0.00 | 0.00 | 9 | 1015.3 |
| 20260904154733 | 74 | 95 | 0.0 | 3.0 | 0.00 | 0.00 | 0.00 | 12 | 1015.2 |
| 20260904154232 | 74 | 74 | 2.0 | 2.0 | 0.00 | 0.00 | 0.00 | 13 | 1015.2 |
| 20260904153733 | 73 | 74 | 0.0 | 0.0 | 0.00 | 0.00 | 0.00 | 14 | 1015.3 |
| 20260904153232 | 72 | 74 | 0.0 | 0.0 | 0.00 | 0.00 | 0.00 | 14 | 1015.0 |